Latest Weather Observations for Swanbourne

IDW60801

Issued at 7:32 pm WST Monday 27 April 2015 (issued every 30 minutes, with the page automatically refreshed every 10 minutes)

About weather observations | Map of weather stations | Latest weather observations for WA | Other Formats
Station Details ID: 009215 Name: SWANBOURNE Lat: -31.96 Lon: 115.76 Height: 40.96 m
Data from the previous 72 hours. | See also: Recent months at Swanbourne
Date/Time
WST
Temp
°C
App
Temp
°C
Dew
Point
Rel
Hum
%
Delta-T
°C
Wind Press
QNH
hPa
Press
MSL
hPa
Rain
since 9 am
mm
Dir
 
Spd
km/h
Gust
km/h
Spd
kts
Gust
kts
27/07:30pm 20.2 16.7 3.4 33 8.0 E 11 17 6 9 - - 0.0
27/07:00pm 20.9 17.4 3.6 32 8.3 E 11 17 6 9 - - 0.0
27/06:30pm 21.1 17.7 3.8 32 8.3 E 11 15 6 8 - - 0.0
27/06:00pm 22.1 18.6 3.7 30 8.9 E 11 19 6 10 - - 0.0
27/05:30pm 23.0 19.9 3.5 28 9.5 E 9 15 5 8 - - 0.0
27/05:00pm 24.5 21.5 4.3 27 10.0 E 9 17 5 9 - - 0.0
27/04:30pm 25.3 21.5 3.9 25 10.6 E 13 28 7 15 - - 0.0
27/04:00pm 25.6 21.8 4.1 25 10.7 ENE 13 22 7 12 - - 0.0
27/03:30pm 25.9 22.0 3.2 23 11.2 E 13 26 7 14 - - 0.0
27/03:00pm 26.1 21.9 4.0 24 11.0 E 15 24 8 13 - - 0.0
27/02:30pm 26.2 21.6 3.5 23 11.2 E 17 30 9 16 - - 0.0
27/02:00pm 26.3 22.6 4.7 25 10.9 ENE 13 24 7 13 - - 0.0
27/01:30pm 25.6 21.2 4.7 26 10.5 E 17 30 9 16 - - 0.0
27/01:00pm 25.1 21.2 5.3 28 10.1 ENE 15 32 8 17 - - 0.0
27/12:30pm 24.6 21.2 5.9 30 9.6 NE 13 24 7 13 - - 0.0
27/12:00pm 24.3 20.6 6.1 31 9.3 ENE 15 26 8 14 - - 0.0
27/11:30am 23.0 18.4 5.4 32 8.8 ENE 19 32 10 17 - - 0.0
27/11:00am 22.7 17.9 5.6 33 8.6 ENE 20 37 11 20 - - 0.0
27/10:30am 22.1 17.3 5.5 34 8.3 ENE 20 35 11 19 - - 0.0
27/10:00am 21.0 16.4 5.4 36 7.7 ENE 19 32 10 17 - - 0.0
27/09:30am 19.4 14.5 5.1 39 7.0 ENE 20 33 11 18 - - 0.0
27/09:00am 18.3 13.0 4.8 41 6.5 ENE 22 39 12 21 - - 0.0
27/08:30am 17.1 12.2 5.1 45 5.8 ENE 20 30 11 16 - - 0.0
27/08:00am 15.4 10.4 4.8 49 5.0 E 20 30 11 16 - - 0.0
27/07:30am 14.2 9.4 4.5 52 4.5 E 19 26 10 14 - - 0.0
27/07:00am 13.6 9.1 4.2 53 4.3 E 17 24 9 13 - - 0.0
27/06:30am 13.8 9.3 4.1 52 4.4 E 17 24 9 13 - - 0.0
27/06:00am 14.0 9.1 4.0 51 4.6 E 19 28 10 15 - - 0.0
27/05:30am 14.3 9.8 4.0 50 4.7 E 17 26 9 14 - - 0.0
27/05:00am 14.4 9.4 3.8 49 4.8 ENE 19 30 10 16 - - 0.0
27/04:30am 14.7 9.7 3.8 48 5.0 E 19 26 10 14 - - 0.0
27/04:00am 14.9 9.9 3.7 47 5.1 E 19 30 10 16 - - 0.0
27/03:30am 15.1 10.1 3.6 46 5.3 E 19 28 10 15 - - 0.0
27/03:00am 15.2 10.6 3.7 46 5.3 E 17 28 9 15 - - 0.0
27/02:30am 15.4 10.8 3.5 45 5.4 E 17 28 9 15 - - 0.0
27/02:00am 15.3 11.0 3.5 45 5.4 E 15 20 8 11 - - 0.0
27/01:30am 15.5 11.2 3.3 44 5.6 E 15 20 8 11 - - 0.0
27/01:00am 15.4 11.5 3.2 44 5.5 E 13 19 7 10 - - 0.0
27/12:30am 15.2 11.3 3.4 45 5.4 ENE 13 22 7 12 - - 0.0
27/12:00am 13.9 11.0 4.8 54 4.2 E 9 11 5 6 - - 0.0
 
Date/Time
WST
Temp
°C
App
Temp
°C
Dew
Point
Rel
Hum
%
Delta-T
°C
Wind Press
QNH
hPa
Press
MSL
hPa
Rain
since 9 am
mm
Dir
 
Spd
km/h
Gust
km/h
Spd
kts
Gust
kts
26/11:30pm 14.2 11.3 4.5 52 4.5 ESE 9 13 5 7 - - 0.0
26/11:00pm 15.2 11.9 4.3 48 5.1 ESE 11 13 6 7 - - 0.0
26/10:30pm 15.5 12.0 3.3 44 5.6 ESE 11 13 6 7 - - 0.0
26/10:00pm 15.7 12.6 3.5 44 5.6 ESE 9 13 5 7 - - 0.0
26/09:30pm 16.4 13.3 3.5 42 5.9 ESE 9 13 5 7 - - 0.0
26/09:00pm 16.8 13.6 3.1 40 6.3 E 9 13 5 7 - - 0.0
26/08:30pm 17.5 13.9 3.0 38 6.7 E 11 17 6 9 - - 0.0
26/08:00pm 17.5 14.0 3.4 39 6.5 E 11 15 6 8 - - 0.0
26/07:30pm 17.5 14.3 3.0 38 6.7 E 9 13 5 7 - - 0.0
26/07:00pm 18.4 15.5 2.7 35 7.2 E 7 9 4 5 - - 0.0
26/06:30pm 19.9 17.0 2.7 32 8.0 ENE 7 13 4 7 - - 0.0
26/06:00pm 20.9 17.3 2.7 30 8.6 ENE 11 19 6 10 - - 0.0
26/05:30pm 21.9 18.3 3.1 29 9.0 ENE 11 20 6 11 - - 0.0
26/05:00pm 23.0 18.3 3.0 27 9.6 E 17 28 9 15 - - 0.0
26/04:30pm 23.7 19.0 3.1 26 10.0 E 17 28 9 15 - - 0.0
26/04:00pm 24.2 19.2 3.5 26 10.1 E 19 32 10 17 - - 0.0
26/03:30pm 24.9 20.8 4.1 26 10.3 E 15 26 8 14 - - 0.0
26/03:00pm 24.8 20.6 4.0 26 10.3 E 15 26 8 14 - - 0.0
26/02:30pm 25.1 21.8 4.8 27 10.2 E 11 20 6 11 - - 0.0
26/02:00pm 24.6 21.0 4.9 28 9.9 E 13 24 7 13 - - 0.0
26/01:30pm 24.8 20.7 6.1 30 9.6 E 17 24 9 13 - - 0.0
26/01:00pm 23.8 19.9 5.2 30 9.4 E 15 26 8 14 - - 0.0
26/12:30pm 23.5 18.7 4.9 30 9.3 E 19 32 10 17 - - 0.0
26/12:00pm 23.1 18.9 5.5 32 8.9 ENE 17 28 9 15 - - 0.0
26/11:30am 22.9 19.1 5.8 33 8.6 ENE 15 24 8 13 - - 0.0
26/11:00am 22.2 18.4 6.0 35 8.2 ENE 15 26 8 14 - - 0.0
26/10:30am 20.9 16.6 5.3 36 7.7 ENE 17 26 9 14 - - 0.0
26/10:00am 19.7 15.9 5.7 40 6.9 E 15 24 8 13 - - 0.0
26/09:30am 17.9 13.0 5.2 43 6.1 E 20 32 11 17 - - 0.0
26/09:00am 16.7 12.4 5.3 47 5.5 E 17 26 9 14 - - 0.0
26/08:30am 15.4 10.5 5.3 51 4.8 E 20 33 11 18 - - 0.0
26/08:00am 14.3 8.6 5.1 54 4.3 E 24 41 13 22 - - 0.0
26/07:30am 13.2 8.3 5.1 58 3.8 E 20 33 11 18 - - 0.0
26/07:00am 12.7 7.9 4.9 59 3.6 E 19 28 10 15 - - 0.0
26/06:30am 12.7 8.7 4.7 58 3.7 E 15 26 8 14 - - 0.0
26/06:00am 13.0 8.2 4.7 57 3.8 E 19 28 10 15 - - 0.0
26/05:30am 13.1 8.1 4.8 57 3.8 E 20 30 11 16 - - 0.0
26/05:00am 13.0 8.6 4.7 57 3.8 E 17 26 9 14 - - 0.0
26/04:30am 13.3 8.5 4.7 56 4.0 E 19 28 10 15 - - 0.0
26/04:00am 13.4 9.0 4.8 56 4.0 E 17 32 9 17 - - 0.0
26/03:30am 13.9 9.5 5.0 55 4.2 E 17 28 9 15 - - 0.0
26/03:00am 14.3 9.9 4.9 53 4.4 E 17 28 9 15 - - 0.0
26/02:30am 14.9 10.0 4.9 51 4.7 E 20 32 11 17 - - 0.0
26/02:00am 15.1 10.4 5.0 51 4.8 E 19 28 10 15 - - 0.0
26/01:30am 15.2 11.2 4.9 50 4.8 E 15 26 8 14 - - 0.0
26/01:00am 15.3 11.7 5.0 50 4.9 E 13 24 7 13 - - 0.0
26/12:30am 15.6 12.0 5.2 50 4.9 E 13 22 7 12 - - 0.0
26/12:00am 15.7 11.8 5.3 50 5.0 E 15 22 8 12 - - 0.0
 
Date/Time
WST
Temp
°C
App
Temp
°C
Dew
Point
Rel
Hum
%
Delta-T
°C
Wind Press
QNH
hPa
Press
MSL
hPa
Rain
since 9 am
mm
Dir
 
Spd
km/h
Gust
km/h
Spd
kts
Gust
kts
25/11:30pm 15.9 11.6 5.2 49 5.1 E 17 28 9 15 - - 0.0
25/11:00pm 15.4 11.9 5.3 51 4.8 E 13 20 7 11 - - 0.0
25/10:30pm 15.8 12.2 5.1 49 5.1 E 13 19 7 10 - - 0.0
25/10:00pm 16.1 12.1 4.8 47 5.3 ESE 15 26 8 14 - - 0.0
25/09:30pm 15.8 12.4 4.2 46 5.4 ESE 11 17 6 9 - - 0.0
25/09:00pm 15.8 12.1 4.2 46 5.4 ESE 13 17 7 9 - - 0.0
25/08:30pm 15.9 12.6 4.6 47 5.3 ESE 11 13 6 7 - - 0.0
25/08:00pm 16.6 13.3 4.3 44 5.8 ESE 11 15 6 8 - - 0.0
25/07:30pm 17.2 13.8 4.2 42 6.1 ESE 11 15 6 8 - - 0.0
25/07:00pm 17.5 14.1 4.1 41 6.3 ESE 11 15 6 8 - - 0.0
25/06:30pm 18.3 14.8 3.4 37 7.0 ESE 11 17 6 9 - - 0.0
25/06:00pm 19.1 15.6 3.3 35 7.4 ESE 11 17 6 9 - - 0.0
25/05:30pm 20.4 16.5 3.2 32 8.1 ESE 13 24 7 13 - - 0.0
25/05:00pm 21.8 18.0 3.9 31 8.7 ESE 13 20 7 11 - - 0.0
25/04:30pm 21.9 18.0 3.6 30 8.8 ESE 13 30 7 16 - - 0.0
25/04:00pm 22.9 17.8 2.9 27 9.6 E 19 35 10 19 - - 0.0
25/03:30pm 22.8 18.5 3.4 28 9.4 E 15 28 8 15 - - 0.0
25/03:00pm 23.6 19.8 4.0 28 9.6 E 13 20 7 11 - - 0.0
25/02:30pm 22.5 18.6 3.6 29 9.1 ESE 13 26 7 14 - - 0.0
25/02:00pm 22.2 17.6 3.8 30 8.9 E 17 28 9 15 - - 0.0
25/01:30pm 22.7 18.6 4.2 30 9.1 E 15 30 8 16 - - 0.0
25/01:00pm 21.8 17.3 4.4 32 8.5 E 17 35 9 19 - - 0.0
25/12:30pm 21.0 16.2 4.6 34 8.0 E 19 32 10 17 - - 0.0
25/12:00pm 20.2 15.4 4.7 36 7.5 NE 19 30 10 16 - - 0.0
25/11:30am 20.5 16.1 4.9 36 7.6 ENE 17 30 9 16 - - 0.0
25/11:00am 19.9 15.7 5.5 39 7.1 ENE 17 30 9 16 - - 0.0
25/10:30am 18.9 13.6 5.0 40 6.7 E 22 35 12 19 - - 0.0
25/10:00am 18.1 12.9 5.3 43 6.2 E 22 37 12 20 - - 0.0
25/09:30am 17.5 13.4 6.1 47 5.6 ENE 17 32 9 17 - - 0.0
25/09:00am 15.8 11.7 6.0 52 4.7 E 17 30 9 16 - - 0.0
25/08:30am 14.2 9.4 5.8 57 4.0 E 20 32 11 17 - - 0.0
25/08:00am 13.7 9.2 6.3 61 3.5 E 19 30 10 16 - - 0.0
25/07:30am 12.9 8.4 6.3 64 3.1 E 19 28 10 15 - - 0.0
25/07:00am 12.4 7.7 6.0 65 3.0 E 20 30 11 16 - - 0.0
25/06:30am 12.5 8.0 6.1 65 3.0 E 19 28 10 15 - - 0.0
25/06:00am 12.6 8.5 6.0 64 3.1 E 17 30 9 16 - - 0.0
25/05:30am 12.8 8.3 6.2 64 3.1 E 19 28 10 15 - - 0.0
25/05:00am 13.1 8.4 6.0 62 3.4 E 20 30 11 16 - - 0.0
25/04:30am 13.1 8.6 6.0 62 3.4 E 19 28 10 15 - - 0.0
25/04:00am 13.4 7.9 6.0 61 3.5 E 24 37 13 20 - - 0.0
25/03:30am 13.5 8.4 6.1 61 3.5 E 22 35 12 19 - - 0.0
25/03:00am 13.8 9.1 5.9 59 3.8 E 20 33 11 18 - - 0.0
25/02:30am 14.0 9.3 5.9 58 3.9 E 20 39 11 21 - - 0.0
25/02:00am 14.2 9.6 5.8 57 4.0 E 19 32 10 17 - - 0.0
25/01:30am 14.4 9.8 5.7 56 4.1 E 19 35 10 19 - - 0.0
25/01:00am 14.8 9.3 5.9 55 4.3 E 24 39 13 21 - - 0.0
25/12:30am 14.8 10.1 6.1 56 4.2 E 20 35 11 19 - - 0.0
25/12:00am 15.0 10.4 5.8 54 4.4 E 19 33 10 18 - - 0.0
 
Date/Time
WST
Temp
°C
App
Temp
°C
Dew
Point
Rel
Hum
%
Delta-T
°C
Wind Press
QNH
hPa
Press
MSL
hPa
Rain
since 9 am
mm
Dir
 
Spd
km/h
Gust
km/h
Spd
kts
Gust
kts
24/11:35pm 15.6 9.3 5.5 51 4.8 E 28 48 15 26 - - 0.0
24/11:30pm 15.4 10.2 5.3 51 4.8 E 22 35 12 19 - - 0.0
24/11:00pm 15.6 10.3 5.2 50 4.9 E 22 43 12 23 - - 0.0
24/10:30pm 15.8 11.0 5.4 50 5.0 E 20 33 11 18 - - 0.0
24/10:00pm 15.7 11.0 5.3 50 5.0 E 19 28 10 15 - - 0.0
24/09:30pm 15.7 11.4 5.3 50 5.0 E 17 28 9 15 - - 0.0
24/09:00pm 15.8 11.5 5.1 49 5.1 ESE 17 26 9 14 - - 0.0
24/08:30pm 16.3 11.6 5.0 47 5.4 ESE 19 35 10 19 - - 0.0
24/08:00pm 16.3 12.7 5.0 47 5.4 ESE 13 24 7 13 - - 0.0

Other Formats:

Comma delimited format used in spreadsheet applications
http://www.bom.gov.au/fwo/IDW60801/IDW60801.94614.axf

JavaScript Object Notation format (JSON) in row-major order
http://www.bom.gov.au/fwo/IDW60801/IDW60801.94614.json